Flag for Germany Weather past 2 weeks in Freiberg, Saxony, Germany

57 °F

Light rain. Fog.

Feels Like: 56 °F
Forecast: 48 / 56 °F
Wind: 6 mph from Southeast

Location: Dresden-Klotzsche

Current Time: Oct 7, 2015 at 8:12:14 PM

Latest Report: Oct 7, 2015 at 7:20 PM

Visibility: 2 mi

Pressure: 29.95 "Hg

Humidity: 100%

Dew point: 57 °F

Location of FreibergLocation

Historic Weather in Freiberg — Graph


Freiberg temperature yesterday

Maximum temperature yesterday: 64 °F (at 2:50 PM)
Minimum temperature yesterday: 52 °F (at 1:20 AM)
Average temperature yesterday: 58 °F

Past Weeks' High & Low Weather Summary

High68 °F (Oct 5, 3:20 PM)100% (Sep 23, 10:50 PM)30.63 "Hg (Sep 23, 10:50 PM)
Low36 °F (Oct 1, 5:20 AM)39% (Oct 2, 2:50 PM)29.65 "Hg (Sep 22, 6:20 PM)
Average54 °F77%30.19 "Hg
* Reported Sep 22 6:20 PM — Oct 7 6:50 PM, Freiberg, Weather by CustomWeather, © 2015

Note: Actual official high and low records may vary slightly from our data, if they occured in-between our weather recording intervals... More about our weather records


Freiberg weather history for previous 24 hours

Time TempWeatherWind HumidityBarometerVisibility
6:50 PM
Wed, Oct 7
59 °FLight rain. Fog.6 mph94%29.95 "Hg2 mi
6:20 PM59 °FLight rain. Fog.6 mph94%29.92 "Hg2 mi
5:50 PM59 °FLight rain. Fog.6 mph94%29.92 "Hg3 mi
5:20 PM59 °FLight rain. Broken clouds.6 mph100%29.92 "Hg5 mi
4:50 PM59 °FLight rain. Broken clouds.6 mph94%29.92 "Hg5 mi
4:20 PM59 °FLight rain. Broken clouds.5 mph94%29.92 "HgN/A
3:50 PM59 °FLight rain. Broken clouds.8 mph94%29.92 "HgN/A
3:20 PM61 °FLight rain. Partly sunny.6 mph94%29.92 "Hg4 mi
2:50 PM61 °FLight rain. Partly sunny.7 mph94%29.92 "Hg4 mi
2:20 PM61 °FLight rain. Partly sunny.7 mph94%29.92 "Hg4 mi
1:50 PM59 °FLight rain. Partly sunny.7 mph94%29.92 "Hg4 mi
1:20 PM59 °FLight rain. Broken clouds.5 mph94%29.89 "Hg4 mi
12:50 PM59 °FLight rain. Broken clouds.5 mph94%29.89 "Hg4 mi
12:20 PM59 °FLight rain. Fog.6 mph94%29.89 "Hg3 mi
11:50 AM59 °FRain. Fog.6 mph94%29.89 "Hg3 mi
11:20 AM57 °FRain. Fog.6 mph100%29.89 "Hg3 mi
10:50 AM57 °FLight rain. Fog.6 mph100%29.89 "Hg3 mi
10:20 AM57 °FRain. Fog.5 mph94%29.89 "Hg3 mi
9:50 AM57 °FLight rain. Fog.5 mph94%29.86 "Hg3 mi
9:20 AM57 °FLight rain. Fog.5 mph94%29.86 "Hg3 mi
8:50 AM57 °FRain. Fog.6 mph94%29.86 "Hg3 mi
8:20 AM57 °FRain. Fog.7 mph94%29.86 "Hg3 mi
7:50 AM57 °FLight rain. Fog.7 mph94%29.83 "Hg3 mi
7:20 AM57 °FLight rain. Fog.6 mph94%29.83 "Hg3 mi
6:50 AM57 °FLight rain. Fog.5 mph94%29.83 "Hg3 mi
6:20 AM57 °FPassing clouds.5 mph94%29.83 "Hg4 mi
5:50 AM57 °FPassing clouds.5 mph94%29.83 "Hg5 mi
5:20 AM57 °FLight rain. Passing clouds.5 mph88%29.83 "Hg6 mi
4:50 AM59 °FPassing clouds.3 mph82%29.83 "HgN/A
4:20 AM59 °FPassing clouds.6 mph82%29.80 "HgN/A
3:50 AM57 °FPassing clouds.7 mph88%29.80 "HgN/A
3:20 AM57 °FPassing clouds.7 mph88%29.80 "HgN/A
2:50 AM59 °FPassing clouds.6 mph82%29.80 "HgN/A
2:20 AM59 °FPassing clouds.5 mph82%29.80 "HgN/A
1:50 AM57 °FPassing clouds.5 mph88%29.80 "HgN/A
1:20 AM57 °FPassing clouds.7 mph88%29.80 "HgN/A
12:50 AM57 °FPassing clouds.5 mph88%29.80 "HgN/A
12:20 AM57 °FPassing clouds.6 mph82%29.80 "HgN/A
11:20 PM
Tue, Oct 6
57 °FClear.6 mph82%29.80 "Hg10 mi
10:50 PM57 °FClear.5 mph82%29.80 "Hg10 mi
10:20 PM57 °FClear.5 mph82%29.80 "Hg10 mi
9:50 PM59 °FPassing clouds.7 mph77%29.80 "HgN/A
9:20 PM59 °FClear.6 mph77%29.80 "Hg10 mi
8:50 PM59 °FClear.6 mph77%29.80 "Hg10 mi
8:20 PM59 °FClear.6 mph77%29.80 "Hg10 mi
Weather by CustomWeather, © 2015

See weather overviewHow to use our weather pages